APG327 RPLL-RPVA

Flight info

Callsign APG327
Flight time 0h 56m
Altitude 33000
Route IPATA2P IPATA B462 ARREX ARREX2R
Aircraft A320/M-SDE3FGHIRWY/LB1

Departure

Time 2026-04-17 05:50
Airport Ninoy Aquino International Airport (RPLL)

Arrival

Time 2026-04-17 06:47
Airport Daniel Z. Romualdez Airport (RPVA)
Time Latitude Longitude Altitude Speed Heading
2026-04-17 05:14 14.50713 121.01167 87 ft 0 kts 330°
2026-04-17 05:38 14.50698 121.01177 63 ft 4 kts 336°
2026-04-17 05:39 14.50676 121.01178 61 ft 4 kts 45°
2026-04-17 05:39 14.50667 121.01166 63 ft 0 kts 60°
2026-04-17 05:44 14.50669 121.01170 61 ft 1 kts 60°
2026-04-17 05:44 14.50678 121.01186 61 ft 5 kts 60°
2026-04-17 05:44 14.50702 121.01230 61 ft 9 kts 60°
2026-04-17 05:44 14.50724 121.01294 69 ft 10 kts 106°
2026-04-17 05:45 14.50694 121.01359 67 ft 11 kts 78°
2026-04-17 05:45 14.50735 121.01439 64 ft 14 kts 60°
2026-04-17 05:45 14.50788 121.01534 64 ft 14 kts 60°
2026-04-17 05:45 14.50840 121.01627 65 ft 17 kts 60°
2026-04-17 05:46 14.50898 121.01730 62 ft 14 kts 59°
2026-04-17 05:46 14.50951 121.01826 67 ft 17 kts 61°
2026-04-17 05:46 14.51010 121.01933 67 ft 18 kts 60°
2026-04-17 05:46 14.51078 121.02056 67 ft 21 kts 60°
2026-04-17 05:47 14.51155 121.02193 67 ft 21 kts 60°
2026-04-17 05:47 14.51220 121.02310 69 ft 17 kts 59°
2026-04-17 05:47 14.51284 121.02426 67 ft 20 kts 60°
2026-04-17 05:47 14.51357 121.02556 59 ft 19 kts 60°
2026-04-17 05:48 14.51412 121.02655 67 ft 14 kts 60°
2026-04-17 05:48 14.51463 121.02746 63 ft 12 kts 60°
2026-04-17 05:48 14.51498 121.02823 59 ft 7 kts 88°
2026-04-17 05:48 14.51471 121.02857 65 ft 7 kts 153°
2026-04-17 05:49 14.51442 121.02872 63 ft 7 kts 154°
2026-04-17 05:49 14.51391 121.02876 66 ft 6 kts 195°
2026-04-17 05:49 14.51359 121.02839 63 ft 5 kts 240°
2026-04-17 05:49 14.51287 121.02709 66 ft 53 kts 240°
2026-04-17 05:50 14.51111 121.02393 65 ft 98 kts 240°
2026-04-17 05:50 14.50676 121.01610 64 ft 151 kts 240°
2026-04-17 05:50 14.50097 121.00573 338 ft 172 kts 241°
2026-04-17 05:50 14.49497 120.99498 1009 ft 172 kts 240°
2026-04-17 05:51 14.48707 120.98080 1904 ft 170 kts 239°
2026-04-17 05:51 14.48315 120.97376 2288 ft 170 kts 239°
2026-04-17 05:51 14.47726 120.96321 2844 ft 170 kts 239°
2026-04-17 05:51 14.47134 120.95261 3393 ft 173 kts 239°
2026-04-17 05:52 14.46501 120.94128 3654 ft 193 kts 239°
2026-04-17 05:52 14.45785 120.92849 3873 ft 217 kts 239°
2026-04-17 05:52 14.44988 120.91425 4275 ft 238 kts 237°
2026-04-17 05:52 14.43867 120.90153 4947 ft 243 kts 212°
2026-04-17 05:53 14.42309 120.89484 5727 ft 245 kts 187°
2026-04-17 05:53 14.40640 120.89548 6510 ft 245 kts 163°
2026-04-17 05:53 14.39095 120.90283 7298 ft 246 kts 149°
2026-04-17 05:53 14.37604 120.91164 8094 ft 247 kts 149°
2026-04-17 05:54 14.36105 120.92052 8863 ft 250 kts 149°
2026-04-17 05:54 14.34589 120.92947 9648 ft 252 kts 149°
2026-04-17 05:54 14.33049 120.93851 10305 ft 256 kts 149°
2026-04-17 05:54 14.31579 120.94901 10926 ft 259 kts 131°
2026-04-17 05:55 14.30582 120.96447 11548 ft 261 kts 116°
2026-04-17 05:55 14.29725 120.98119 12206 ft 265 kts 116°
2026-04-17 05:55 14.28865 120.99794 12851 ft 269 kts 116°
2026-04-17 05:55 14.27978 121.01516 13498 ft 273 kts 116°
2026-04-17 05:56 14.27078 121.03260 14083 ft 277 kts 116°
2026-04-17 05:56 14.26166 121.05028 14651 ft 281 kts 115°
2026-04-17 05:56 14.25245 121.06814 15232 ft 284 kts 115°
2026-04-17 05:56 14.24310 121.08625 15809 ft 287 kts 115°
2026-04-17 05:57 14.23379 121.10426 16369 ft 290 kts 115°
2026-04-17 05:57 14.22424 121.12271 16947 ft 292 kts 115°
2026-04-17 05:57 14.21462 121.14132 17524 ft 295 kts 115°
2026-04-17 05:57 14.20491 121.16009 18105 ft 298 kts 115°
2026-04-17 05:58 14.19503 121.17918 18610 ft 301 kts 115°
2026-04-17 05:58 14.18528 121.19804 19105 ft 303 kts 115°
2026-04-17 05:58 14.17535 121.21722 19627 ft 304 kts 116°
2026-04-17 05:59 14.15524 121.25603 20689 ft 308 kts 116°
2026-04-17 05:59 14.14514 121.27555 21207 ft 310 kts 116°
2026-04-17 05:59 14.13494 121.29524 21733 ft 312 kts 116°
2026-04-17 05:59 14.12481 121.31485 22229 ft 314 kts 116°
2026-04-17 06:00 14.11445 121.33488 22717 ft 317 kts 117°
2026-04-17 06:00 14.10404 121.35502 23219 ft 319 kts 117°
2026-04-17 06:00 14.09366 121.37506 23655 ft 322 kts 117°
2026-04-17 06:00 14.08307 121.39548 24055 ft 324 kts 117°
2026-04-17 06:01 14.07240 121.41601 24466 ft 326 kts 117°
2026-04-17 06:01 14.06165 121.43673 24835 ft 328 kts 117°
2026-04-17 06:01 14.05096 121.45733 25232 ft 330 kts 117°
2026-04-17 06:01 14.04011 121.47830 25595 ft 333 kts 117°
2026-04-17 06:02 14.02914 121.49951 25961 ft 336 kts 117°
2026-04-17 06:02 14.01810 121.52086 26349 ft 339 kts 118°
2026-04-17 06:02 14.00688 121.54249 26706 ft 342 kts 118°
2026-04-17 06:02 13.99560 121.56420 27089 ft 345 kts 118°
2026-04-17 06:03 13.98425 121.58605 27460 ft 347 kts 118°
2026-04-17 06:03 13.97295 121.60780 27812 ft 350 kts 118°
2026-04-17 06:03 13.96140 121.63003 28191 ft 353 kts 118°
2026-04-17 06:03 13.94973 121.65245 28555 ft 355 kts 118°
2026-04-17 06:04 13.93793 121.67502 28893 ft 359 kts 119°
2026-04-17 06:04 13.92604 121.69781 29252 ft 361 kts 119°
2026-04-17 06:04 13.91427 121.72043 29603 ft 364 kts 119°
2026-04-17 06:04 13.90227 121.74346 29932 ft 367 kts 119°
2026-04-17 06:05 13.89012 121.76675 30227 ft 370 kts 119°
2026-04-17 06:05 13.87790 121.79022 30517 ft 372 kts 119°
2026-04-17 06:05 13.86481 121.81324 30802 ft 374 kts 125°
2026-04-17 06:05 13.84881 121.83448 31057 ft 376 kts 130°
2026-04-17 06:06 13.83202 121.85496 31324 ft 379 kts 131°
2026-04-17 06:06 13.81496 121.87582 31607 ft 381 kts 130°
2026-04-17 06:06 13.79781 121.89683 31894 ft 384 kts 130°
2026-04-17 06:07 13.77515 121.92454 32232 ft 388 kts 130°
2026-04-17 06:07 13.75772 121.94588 32507 ft 390 kts 130°
2026-04-17 06:07 13.74040 121.96708 32781 ft 393 kts 130°
2026-04-17 06:07 13.72269 121.98879 32894 ft 400 kts 130°
2026-04-17 06:08 13.70444 122.01112 32913 ft 409 kts 130°
2026-04-17 06:08 13.66696 122.05699 32914 ft 428 kts 130°
2026-04-17 06:09 13.62804 122.10464 32915 ft 446 kts 130°
2026-04-17 06:09 13.58737 122.15440 32915 ft 460 kts 130°
2026-04-17 06:10 13.54598 122.20494 32914 ft 463 kts 130°
2026-04-17 06:10 13.50438 122.25572 32913 ft 463 kts 130°
2026-04-17 06:11 13.46314 122.30609 32908 ft 462 kts 130°
2026-04-17 06:11 13.42168 122.35668 32911 ft 462 kts 130°
2026-04-17 06:12 13.38016 122.40722 32918 ft 462 kts 130°
2026-04-17 06:12 13.33863 122.45777 32922 ft 462 kts 130°
2026-04-17 06:13 13.29738 122.50806 32922 ft 462 kts 130°
2026-04-17 06:13 13.25579 122.55865 32920 ft 462 kts 130°
2026-04-17 06:14 13.21425 122.60909 32921 ft 462 kts 130°
2026-04-17 06:14 13.17305 122.65919 32923 ft 462 kts 130°
2026-04-17 06:15 13.13153 122.70964 32927 ft 461 kts 130°
2026-04-17 06:15 13.09029 122.75970 32923 ft 461 kts 130°
2026-04-17 06:16 13.04880 122.81005 32920 ft 461 kts 130°
2026-04-17 06:16 13.00731 122.86035 32917 ft 461 kts 130°
2026-04-17 06:17 12.96611 122.91029 32915 ft 461 kts 130°
2026-04-17 06:17 12.92467 122.96044 32916 ft 461 kts 130°
2026-04-17 06:18 12.88317 123.01067 32918 ft 460 kts 130°
2026-04-17 06:18 12.84167 123.06076 32915 ft 460 kts 130°
2026-04-17 06:19 12.80049 123.11061 32911 ft 460 kts 130°
2026-04-17 06:19 12.75905 123.16080 32908 ft 460 kts 130°
2026-04-17 06:20 12.71781 123.21058 32907 ft 460 kts 130°
2026-04-17 06:20 12.67639 123.26060 32911 ft 460 kts 130°
2026-04-17 06:21 12.63492 123.31054 32907 ft 459 kts 130°
2026-04-17 06:21 12.59383 123.36007 32906 ft 459 kts 130°
2026-04-17 06:22 12.55245 123.41010 32908 ft 459 kts 130°
2026-04-17 06:22 12.51097 123.46003 32906 ft 459 kts 130°
2026-04-17 06:23 12.46976 123.50952 32907 ft 459 kts 130°
2026-04-17 06:23 12.42835 123.55937 32905 ft 458 kts 130°
2026-04-17 06:24 12.38725 123.60884 32912 ft 458 kts 130°
2026-04-17 06:24 12.34589 123.65875 32910 ft 458 kts 130°
2026-04-17 06:25 12.30526 123.70902 32911 ft 458 kts 129°
2026-04-17 06:25 12.26482 123.75940 32908 ft 458 kts 129°
2026-04-17 06:26 12.22426 123.80959 32909 ft 458 kts 129°
2026-04-17 06:26 12.18372 123.85950 32589 ft 458 kts 129°
2026-04-17 06:26 12.16338 123.88453 32336 ft 457 kts 129°
2026-04-17 06:27 12.14303 123.90963 32103 ft 457 kts 129°
2026-04-17 06:27 12.12269 123.93475 31860 ft 457 kts 129°
2026-04-17 06:27 12.10259 123.95957 31624 ft 458 kts 129°
2026-04-17 06:27 12.08224 123.98462 31141 ft 458 kts 129°
2026-04-17 06:28 12.06188 124.00966 30512 ft 457 kts 130°
2026-04-17 06:28 12.04155 124.03465 29880 ft 456 kts 129°
2026-04-17 06:28 12.02126 124.05960 29211 ft 454 kts 129°
2026-04-17 06:28 12.00109 124.08437 28608 ft 451 kts 129°
2026-04-17 06:29 11.98131 124.10864 28013 ft 448 kts 129°
2026-04-17 06:29 11.96140 124.13308 27420 ft 445 kts 129°
2026-04-17 06:29 11.94167 124.15736 26821 ft 443 kts 129°
2026-04-17 06:29 11.92202 124.18155 26232 ft 440 kts 129°
2026-04-17 06:30 11.90267 124.20532 25673 ft 438 kts 129°
2026-04-17 06:30 11.88318 124.22921 25093 ft 436 kts 129°
2026-04-17 06:30 11.86381 124.25294 24529 ft 434 kts 129°
2026-04-17 06:30 11.84455 124.27656 23988 ft 432 kts 129°
2026-04-17 06:31 11.82539 124.30008 23448 ft 430 kts 128°
2026-04-17 06:31 11.80636 124.32348 22883 ft 426 kts 129°
2026-04-17 06:31 11.78746 124.34666 22382 ft 421 kts 129°
2026-04-17 06:31 11.76880 124.36957 21888 ft 417 kts 129°
2026-04-17 06:32 11.75038 124.39219 21394 ft 413 kts 129°
2026-04-17 06:32 11.73206 124.41469 20892 ft 409 kts 129°
2026-04-17 06:32 11.71394 124.43693 20399 ft 406 kts 129°
2026-04-17 06:32 11.69616 124.45875 19898 ft 404 kts 129°
2026-04-17 06:33 11.67819 124.48076 19385 ft 402 kts 129°
2026-04-17 06:33 11.66026 124.50273 18866 ft 401 kts 129°
2026-04-17 06:33 11.64235 124.52468 18345 ft 401 kts 129°
2026-04-17 06:33 11.62448 124.54660 17762 ft 401 kts 129°
2026-04-17 06:34 11.60693 124.56815 17250 ft 399 kts 129°
2026-04-17 06:34 11.58918 124.58991 16742 ft 397 kts 129°
2026-04-17 06:34 11.57150 124.61155 16205 ft 395 kts 129°
2026-04-17 06:34 11.55397 124.63297 15733 ft 392 kts 129°
2026-04-17 06:35 11.53659 124.65418 15296 ft 387 kts 129°
2026-04-17 06:35 11.51947 124.67507 14849 ft 385 kts 129°
2026-04-17 06:35 11.50189 124.69552 14428 ft 382 kts 135°
2026-04-17 06:35 11.48847 124.70713 14125 ft 381 kts 144°
2026-04-17 06:36 11.46689 124.72226 13394 ft 374 kts 145°
2026-04-17 06:36 11.44570 124.73698 12807 ft 361 kts 145°
2026-04-17 06:36 11.42536 124.75105 12329 ft 346 kts 145°
2026-04-17 06:36 11.40583 124.76456 11866 ft 333 kts 145°
2026-04-17 06:37 11.38695 124.77764 11416 ft 325 kts 144°
2026-04-17 06:37 11.36824 124.79063 11024 ft 323 kts 144°
2026-04-17 06:37 11.34966 124.80354 10648 ft 322 kts 144°
2026-04-17 06:37 11.33144 124.81617 10530 ft 311 kts 144°
2026-04-17 06:38 11.31403 124.82821 10411 ft 300 kts 144°
2026-04-17 06:38 11.29697 124.84003 10281 ft 292 kts 143°
2026-04-17 06:38 11.28031 124.85159 10123 ft 286 kts 143°
2026-04-17 06:38 11.26318 124.86183 10060 ft 287 kts 155°
2026-04-17 06:39 11.24386 124.86774 9735 ft 291 kts 166°
2026-04-17 06:39 11.22452 124.87194 9283 ft 285 kts 166°
2026-04-17 06:39 11.20529 124.87613 8895 ft 277 kts 166°
2026-04-17 06:39 11.18672 124.88022 8514 ft 268 kts 166°
2026-04-17 06:40 11.16872 124.88421 8158 ft 259 kts 166°
2026-04-17 06:40 11.15115 124.88813 7806 ft 259 kts 166°
2026-04-17 06:40 11.13349 124.89209 7455 ft 261 kts 167°
2026-04-17 06:40 11.11575 124.89602 7121 ft 261 kts 167°
2026-04-17 06:41 11.09797 124.89997 6760 ft 265 kts 167°
2026-04-17 06:41 11.08005 124.90398 6430 ft 262 kts 167°
2026-04-17 06:41 11.06249 124.90837 6020 ft 257 kts 158°
2026-04-17 06:41 11.04777 124.91802 5662 ft 249 kts 132°
2026-04-17 06:42 11.03865 124.93265 5312 ft 243 kts 107°
2026-04-17 06:42 11.03594 124.94930 4960 ft 237 kts 91°
2026-04-17 06:42 11.03491 124.96575 4610 ft 233 kts 92°
2026-04-17 06:42 11.03387 124.98213 4270 ft 231 kts 91°
2026-04-17 06:43 11.03355 124.99828 3936 ft 227 kts 77°
2026-04-17 06:43 11.04107 125.01186 3606 ft 223 kts 35°
2026-04-17 06:43 11.05530 125.01712 3284 ft 217 kts
2026-04-17 06:43 11.06995 125.01837 2999 ft 211 kts
2026-04-17 06:44 11.08467 125.01915 2691 ft 212 kts
2026-04-17 06:44 11.09922 125.01984 2427 ft 206 kts
2026-04-17 06:44 11.11350 125.02056 2182 ft 204 kts
2026-04-17 06:44 11.12757 125.02135 1851 ft 199 kts
2026-04-17 06:45 11.14113 125.02215 1570 ft 190 kts
2026-04-17 06:45 11.15375 125.02291 1335 ft 172 kts
2026-04-17 06:45 11.16510 125.02362 1093 ft 156 kts
2026-04-17 06:45 11.17565 125.02431 897 ft 149 kts
2026-04-17 06:46 11.18596 125.02499 694 ft 147 kts
2026-04-17 06:46 11.19617 125.02565 486 ft 147 kts
2026-04-17 06:46 11.20625 125.02635 264 ft 146 kts
2026-04-17 06:46 11.21640 125.02702 85 ft 146 kts
2026-04-17 06:47 11.22603 125.02763 17 ft 120 kts
2026-04-17 06:47 11.23135 125.02799 15 ft 36 kts
2026-04-17 06:47 11.23377 125.02814 15 ft 34 kts
2026-04-17 06:47 11.23586 125.02828 18 ft 24 kts
2026-04-17 06:48 11.23692 125.02806 17 ft 9 kts 21°
2026-04-17 06:48 11.23675 125.02836 17 ft 8 kts 168°
2026-04-17 06:48 11.23593 125.02830 18 ft 15 kts 184°
2026-04-17 06:48 11.23475 125.02821 16 ft 19 kts 184°
2026-04-17 06:49 11.23326 125.02812 14 ft 24 kts 183°
2026-04-17 06:49 11.23151 125.02800 16 ft 26 kts 184°
2026-04-17 06:49 11.22977 125.02788 15 ft 18 kts 182°
2026-04-17 06:49 11.22840 125.02780 15 ft 21 kts 184°
2026-04-17 06:50 11.22729 125.02773 16 ft 10 kts 183°
2026-04-17 06:50 11.22648 125.02768 17 ft 13 kts 184°
2026-04-17 06:50 11.22566 125.02751 18 ft 10 kts 225°
2026-04-17 06:50 11.22575 125.02700 17 ft 7 kts 306°
2026-04-17 06:51 11.22608 125.02685 16 ft 4 kts 358°
2026-04-17 06:51 11.22623 125.02675 16 ft 2 kts 308°
2026-04-17 06:51 11.22631 125.02665 16 ft 2 kts 308°
2026-04-17 06:51 11.22637 125.02656 16 ft 1 kts 308°
2026-04-17 06:52 11.22640 125.02652 16 ft 0 kts 308°